EXS64VW LEAL-EGBB

Flight info

Callsign EXS64VW
Flight time 2h 24m
Altitude 36000
Route ASTRO L150 RBO N867 BLV DCT DOSUL N75 DELOG DCT NOVAN DCT TERKU DCT RUSIB DCT NOZHU DCT SHIRI DCT TOJAQ P16 EPACE N91 FIGZI
Aircraft A21N/M-SDE2E3FGHIRWXY/LB1

Departure

Time 2026-05-07 17:30
Airport Alicante-Elche Miguel Hernández Airport (LEAL)

Arrival

Time 2026-05-07 19:54
Airport Birmingham Airport (EGBB)
Time Latitude Longitude Altitude Speed Heading
2026-05-07 16:44 38.28466 -0.55863 101 ft 0 kts 10°
2026-05-07 17:22 38.28485 -0.55859 93 ft 4 kts 10°
2026-05-07 17:22 38.28524 -0.55856 99 ft 6 kts 350°
2026-05-07 17:23 38.28538 -0.55876 100 ft 2 kts 304°
2026-05-07 17:23 38.28543 -0.55903 100 ft 5 kts 280°
2026-05-07 17:23 38.28551 -0.55966 100 ft 9 kts 279°
2026-05-07 17:23 38.28532 -0.56014 101 ft 4 kts 218°
2026-05-07 17:24 38.28505 -0.56018 102 ft 6 kts 189°
2026-05-07 17:24 38.28452 -0.56031 106 ft 7 kts 194°
2026-05-07 17:24 38.28433 -0.56070 108 ft 5 kts 258°
2026-05-07 17:24 38.28439 -0.56128 108 ft 9 kts 279°
2026-05-07 17:25 38.28453 -0.56235 109 ft 14 kts 280°
2026-05-07 17:25 38.28472 -0.56356 110 ft 13 kts 281°
2026-05-07 17:25 38.28485 -0.56458 114 ft 11 kts 278°
2026-05-07 17:25 38.28497 -0.56553 117 ft 12 kts 279°
2026-05-07 17:26 38.28514 -0.56674 119 ft 16 kts 281°
2026-05-07 17:26 38.28535 -0.56825 127 ft 17 kts 279°
2026-05-07 17:26 38.28553 -0.56949 134 ft 11 kts 281°
2026-05-07 17:26 38.28566 -0.57038 138 ft 10 kts 281°
2026-05-07 17:27 38.28579 -0.57130 142 ft 11 kts 280°
2026-05-07 17:27 38.28594 -0.57233 146 ft 13 kts 279°
2026-05-07 17:27 38.28609 -0.57348 150 ft 12 kts 279°
2026-05-07 17:27 38.28590 -0.57411 153 ft 6 kts 219°
2026-05-07 17:28 38.28552 -0.57429 154 ft 5 kts 191°
2026-05-07 17:28 38.28521 -0.57436 155 ft 4 kts 189°
2026-05-07 17:28 38.28483 -0.57444 155 ft 8 kts 188°
2026-05-07 17:28 38.28442 -0.57418 153 ft 7 kts 116°
2026-05-07 17:29 38.28426 -0.57313 148 ft 19 kts 99°
2026-05-07 17:29 38.28365 -0.56864 129 ft 91 kts 101°
2026-05-07 17:29 38.28212 -0.55779 105 ft 154 kts 99°
2026-05-07 17:29 38.28010 -0.54333 581 ft 169 kts 99°
2026-05-07 17:30 38.27779 -0.52865 1438 ft 168 kts 99°
2026-05-07 17:30 38.27547 -0.51420 2177 ft 172 kts 99°
2026-05-07 17:30 38.27301 -0.49829 2549 ft 194 kts 98°
2026-05-07 17:30 38.27030 -0.48060 2988 ft 213 kts 98°
2026-05-07 17:31 38.26737 -0.46118 3404 ft 233 kts 99°
2026-05-07 17:31 38.26427 -0.44084 4258 ft 236 kts 99°
2026-05-07 17:31 38.26106 -0.42002 5032 ft 244 kts 99°
2026-05-07 17:31 38.25778 -0.39857 5731 ft 251 kts 99°
2026-05-07 17:32 38.25444 -0.37658 5964 ft 254 kts 100°
2026-05-07 17:32 38.25107 -0.35455 5995 ft 253 kts 100°
2026-05-07 17:32 38.24738 -0.33264 5984 ft 253 kts 108°
2026-05-07 17:32 38.24202 -0.31952 5998 ft 254 kts 128°
2026-05-07 17:33 38.22243 -0.30317 5991 ft 258 kts 168°
2026-05-07 17:33 38.20468 -0.30361 5994 ft 258 kts 199°
2026-05-07 17:33 38.18950 -0.31514 5988 ft 257 kts 229°
2026-05-07 17:33 38.18091 -0.33467 5991 ft 255 kts 259°
2026-05-07 17:34 38.18090 -0.35687 5991 ft 253 kts 288°
2026-05-07 17:34 38.18829 -0.37706 5994 ft 253 kts 301°
2026-05-07 17:34 38.19666 -0.39662 5995 ft 252 kts 300°
2026-05-07 17:34 38.20484 -0.41611 6083 ft 254 kts 299°
2026-05-07 17:35 38.21323 -0.43631 6622 ft 256 kts 299°
2026-05-07 17:35 38.22140 -0.45609 7634 ft 250 kts 298°
2026-05-07 17:35 38.22949 -0.47565 8541 ft 251 kts 298°
2026-05-07 17:35 38.23765 -0.49536 9397 ft 253 kts 297°
2026-05-07 17:36 38.24591 -0.51532 10206 ft 256 kts 297°
2026-05-07 17:36 38.25415 -0.53528 10943 ft 260 kts 297°
2026-05-07 17:36 38.26287 -0.55595 11706 ft 263 kts 301°
2026-05-07 17:36 38.27434 -0.57432 12437 ft 268 kts 315°
2026-05-07 17:37 38.28918 -0.58910 13133 ft 276 kts 323°
2026-05-07 17:37 38.30554 -0.60361 13389 ft 298 kts 323°
2026-05-07 17:37 38.32307 -0.61938 13635 ft 320 kts 323°
2026-05-07 17:37 38.34178 -0.63633 13836 ft 340 kts 323°
2026-05-07 17:38 38.36143 -0.65418 14212 ft 351 kts 323°
2026-05-07 17:38 38.38139 -0.67230 14873 ft 354 kts 322°
2026-05-07 17:38 38.40152 -0.69057 15526 ft 356 kts 322°
2026-05-07 17:38 38.42178 -0.70898 16177 ft 359 kts 322°
2026-05-07 17:39 38.44218 -0.72755 16829 ft 362 kts 322°
2026-05-07 17:39 38.46280 -0.74633 17436 ft 366 kts 322°
2026-05-07 17:39 38.48357 -0.76526 18073 ft 368 kts 322°
2026-05-07 17:39 38.50450 -0.78435 18635 ft 372 kts 322°
2026-05-07 17:40 38.51848 -0.79710 18984 ft 374 kts 321°
2026-05-07 17:40 38.53969 -0.81647 19525 ft 376 kts 321°
2026-05-07 17:40 38.56106 -0.83598 20039 ft 379 kts 321°
2026-05-07 17:40 38.58965 -0.86212 20717 ft 384 kts 321°
2026-05-07 17:41 38.61142 -0.88206 21222 ft 387 kts 321°
2026-05-07 17:41 38.63336 -0.90216 21719 ft 390 kts 321°
2026-05-07 17:41 38.65553 -0.92249 22227 ft 393 kts 321°
2026-05-07 17:41 38.67057 -0.93627 22548 ft 395 kts 321°
2026-05-07 17:42 38.69297 -0.95684 23042 ft 398 kts 321°
2026-05-07 17:42 38.71556 -0.97759 23511 ft 401 kts 321°
2026-05-07 17:42 38.73830 -0.99849 23957 ft 403 kts 321°
2026-05-07 17:42 38.76101 -1.01936 24474 ft 401 kts 320°
2026-05-07 17:43 38.78343 -1.03997 24946 ft 402 kts 320°
2026-05-07 17:43 38.80642 -1.06114 25407 ft 402 kts 320°
2026-05-07 17:43 38.82915 -1.08209 25846 ft 402 kts 320°
2026-05-07 17:43 38.85156 -1.10277 26270 ft 403 kts 320°
2026-05-07 17:44 38.87431 -1.12378 26710 ft 403 kts 320°
2026-05-07 17:44 38.89705 -1.14480 27131 ft 403 kts 319°
2026-05-07 17:44 38.91984 -1.16587 27517 ft 404 kts 319°
2026-05-07 17:44 38.94264 -1.18697 27913 ft 404 kts 319°
2026-05-07 17:45 38.96545 -1.20810 28307 ft 404 kts 319°
2026-05-07 17:45 38.98825 -1.22924 28685 ft 404 kts 319°
2026-05-07 17:45 39.01109 -1.25043 29035 ft 405 kts 319°
2026-05-07 17:45 39.03394 -1.27164 29355 ft 406 kts 319°
2026-05-07 17:46 39.05686 -1.29296 29700 ft 406 kts 319°
2026-05-07 17:46 39.07975 -1.31425 30055 ft 406 kts 319°
2026-05-07 17:46 39.10269 -1.33562 30289 ft 408 kts 319°
2026-05-07 17:46 39.12571 -1.35710 30517 ft 410 kts 319°
2026-05-07 17:47 39.14888 -1.37872 30767 ft 411 kts 319°
2026-05-07 17:47 39.17205 -1.40036 31015 ft 412 kts 319°
2026-05-07 17:47 39.19557 -1.42234 31328 ft 412 kts 319°
2026-05-07 17:47 39.21882 -1.44408 31630 ft 412 kts 318°
2026-05-07 17:48 39.24201 -1.46578 31964 ft 411 kts 318°
2026-05-07 17:48 39.26475 -1.48708 32297 ft 409 kts 318°
2026-05-07 17:48 39.28808 -1.50894 32592 ft 409 kts 318°
2026-05-07 17:48 39.31078 -1.53023 32888 ft 408 kts 318°
2026-05-07 17:49 39.33367 -1.55172 33188 ft 407 kts 318°
2026-05-07 17:49 39.35656 -1.57321 33495 ft 406 kts 318°
2026-05-07 17:49 39.37937 -1.59466 33780 ft 405 kts 318°
2026-05-07 17:49 39.40210 -1.61605 34041 ft 404 kts 318°
2026-05-07 17:50 39.42482 -1.63745 34232 ft 404 kts 318°
2026-05-07 17:50 39.44755 -1.65890 34406 ft 405 kts 318°
2026-05-07 17:50 39.47030 -1.68037 34561 ft 405 kts 318°
2026-05-07 17:50 39.49312 -1.70193 34730 ft 406 kts 318°
2026-05-07 17:51 39.51595 -1.72351 34888 ft 407 kts 318°
2026-05-07 17:51 39.53880 -1.74513 35051 ft 407 kts 318°
2026-05-07 17:51 39.56167 -1.76678 35206 ft 407 kts 318°
2026-05-07 17:51 39.58456 -1.78848 35348 ft 408 kts 318°
2026-05-07 17:52 39.60750 -1.81024 35495 ft 409 kts 318°
2026-05-07 17:52 39.63042 -1.83198 35636 ft 409 kts 318°
2026-05-07 17:52 39.65341 -1.85382 35779 ft 410 kts 318°
2026-05-07 17:52 39.67641 -1.87568 35909 ft 410 kts 318°
2026-05-07 17:53 39.72248 -1.91953 35995 ft 410 kts 318°
2026-05-07 17:53 39.76846 -1.96337 35987 ft 410 kts 318°
2026-05-07 17:54 39.81447 -2.00731 35981 ft 410 kts 319°
2026-05-07 17:54 39.86048 -2.05133 35986 ft 411 kts 319°
2026-05-07 17:55 39.90652 -2.09544 35981 ft 411 kts 319°
2026-05-07 17:55 39.95252 -2.13959 35975 ft 410 kts 319°
2026-05-07 17:56 39.99873 -2.18401 35970 ft 409 kts 319°
2026-05-07 17:56 40.04423 -2.22784 35969 ft 409 kts 319°
2026-05-07 17:57 40.08256 -2.26481 35965 ft 408 kts 319°
2026-05-07 17:57 40.13590 -2.31636 35953 ft 408 kts 319°
2026-05-07 17:58 40.18149 -2.36050 35953 ft 408 kts 319°
2026-05-07 17:58 40.22706 -2.40470 35947 ft 408 kts 319°
2026-05-07 17:59 40.27273 -2.44883 35948 ft 408 kts 319°
2026-05-07 17:59 40.31848 -2.49290 35942 ft 408 kts 319°
2026-05-07 18:00 40.36258 -2.53872 35938 ft 406 kts 314°
2026-05-07 18:00 40.40334 -2.58971 35941 ft 404 kts 310°
2026-05-07 18:01 40.44121 -2.64416 35943 ft 404 kts 309°
2026-05-07 18:01 40.47889 -2.69888 35944 ft 404 kts 309°
2026-05-07 18:02 40.53556 -2.78106 35945 ft 404 kts 309°
2026-05-07 18:03 40.57334 -2.83594 35945 ft 405 kts 309°
2026-05-07 18:03 40.61108 -2.89085 35946 ft 405 kts 309°
2026-05-07 18:04 40.64880 -2.94584 35952 ft 405 kts 309°
2026-05-07 18:04 40.68651 -3.00091 35950 ft 405 kts 309°
2026-05-07 18:05 40.72418 -3.05601 35951 ft 405 kts 309°
2026-05-07 18:05 40.76180 -3.11115 35951 ft 404 kts 309°
2026-05-07 18:06 40.79973 -3.16592 35946 ft 405 kts 313°
2026-05-07 18:06 40.84651 -3.20811 35937 ft 415 kts 331°
2026-05-07 18:07 40.90283 -3.22808 35928 ft 429 kts 349°
2026-05-07 18:07 40.96316 -3.22248 35916 ft 441 kts
2026-05-07 18:08 41.02366 -3.20859 35911 ft 441 kts
2026-05-07 18:08 41.08416 -3.19495 35901 ft 441 kts
2026-05-07 18:09 41.14471 -3.18138 35904 ft 442 kts
2026-05-07 18:09 41.20547 -3.16777 35903 ft 443 kts
2026-05-07 18:10 41.26634 -3.15408 35903 ft 444 kts
2026-05-07 18:10 41.32731 -3.14033 35905 ft 446 kts
2026-05-07 18:11 41.38877 -3.12644 35914 ft 448 kts
2026-05-07 18:11 41.45023 -3.11252 35919 ft 450 kts
2026-05-07 18:12 41.51200 -3.09849 35923 ft 451 kts
2026-05-07 18:12 41.57397 -3.08438 35930 ft 452 kts
2026-05-07 18:13 41.63612 -3.07020 35935 ft 453 kts
2026-05-07 18:13 41.69833 -3.05598 35937 ft 454 kts
2026-05-07 18:14 41.76059 -3.04170 35946 ft 454 kts
2026-05-07 18:14 41.82290 -3.02737 35946 ft 455 kts
2026-05-07 18:15 41.88535 -3.01297 35951 ft 455 kts
2026-05-07 18:15 41.94778 -2.99857 35952 ft 455 kts
2026-05-07 18:16 42.01024 -2.98412 35943 ft 456 kts
2026-05-07 18:16 42.07271 -2.96963 35942 ft 456 kts
2026-05-07 18:17 42.13570 -2.95501 35936 ft 456 kts
2026-05-07 18:17 42.19818 -2.94045 35929 ft 455 kts
2026-05-07 18:18 42.26052 -2.92592 35922 ft 455 kts
2026-05-07 18:18 42.32283 -2.91137 35914 ft 454 kts
2026-05-07 18:19 42.38507 -2.89678 35900 ft 454 kts
2026-05-07 18:19 42.44753 -2.88559 35912 ft 451 kts 359°
2026-05-07 18:20 42.51008 -2.88362 35914 ft 449 kts 353°
2026-05-07 18:20 42.57249 -2.88693 35919 ft 449 kts 353°
2026-05-07 18:21 42.63504 -2.89019 35917 ft 450 kts 353°
2026-05-07 18:21 42.68711 -2.89289 35913 ft 451 kts 353°
2026-05-07 18:22 42.74990 -2.89617 35918 ft 452 kts 353°
2026-05-07 18:22 42.81287 -2.89947 35932 ft 453 kts 354°
2026-05-07 18:23 42.87591 -2.90272 35923 ft 453 kts 354°
2026-05-07 18:23 42.93890 -2.90606 35923 ft 454 kts 354°
2026-05-07 18:24 43.00201 -2.90940 35917 ft 454 kts 354°
2026-05-07 18:24 43.06514 -2.91274 35924 ft 454 kts 354°
2026-05-07 18:25 43.12831 -2.91607 35902 ft 455 kts 354°
2026-05-07 18:25 43.19156 -2.91942 35900 ft 455 kts 354°
2026-05-07 18:26 43.25474 -2.92313 35898 ft 453 kts 350°
2026-05-07 18:26 43.31472 -2.94453 35887 ft 443 kts 332°
2026-05-07 18:27 43.36612 -2.98923 35877 ft 436 kts 319°
2026-05-07 18:27 43.41445 -3.03948 35888 ft 436 kts 320°
2026-05-07 18:28 43.46282 -3.08962 35889 ft 435 kts 320°
2026-05-07 18:28 43.51115 -3.13982 35886 ft 435 kts 320°
2026-05-07 18:29 43.55939 -3.19004 35886 ft 434 kts 320°
2026-05-07 18:29 43.60757 -3.24031 35884 ft 434 kts 320°
2026-05-07 18:30 43.65604 -3.29097 35882 ft 434 kts 320°
2026-05-07 18:30 43.70423 -3.34119 35884 ft 434 kts 320°
2026-05-07 18:31 43.75285 -3.39070 35886 ft 434 kts 321°
2026-05-07 18:31 43.80141 -3.44027 35885 ft 434 kts 320°
2026-05-07 18:32 43.84991 -3.49003 35882 ft 434 kts 320°
2026-05-07 18:32 43.89807 -3.53957 35886 ft 434 kts 320°
2026-05-07 18:33 43.94685 -3.58987 35891 ft 434 kts 320°
2026-05-07 18:33 43.99559 -3.64022 35892 ft 434 kts 320°
2026-05-07 18:34 44.04382 -3.69015 35891 ft 435 kts 320°
2026-05-07 18:34 44.09226 -3.74039 35895 ft 435 kts 320°
2026-05-07 18:35 44.14075 -3.79081 35901 ft 435 kts 320°
2026-05-07 18:35 44.18918 -3.84126 35904 ft 435 kts 320°
2026-05-07 18:36 44.23760 -3.89182 35909 ft 435 kts 320°
2026-05-07 18:36 44.28632 -3.94195 35906 ft 436 kts 326°
2026-05-07 18:37 44.34263 -3.97419 35906 ft 443 kts 346°
2026-05-07 18:37 44.40391 -3.97720 35905 ft 450 kts
2026-05-07 18:38 44.46666 -3.96811 35904 ft 450 kts
2026-05-07 18:38 44.52895 -3.95934 35907 ft 450 kts
2026-05-07 18:39 44.59101 -3.95063 35912 ft 451 kts
2026-05-07 18:39 44.65386 -3.94180 35916 ft 451 kts
2026-05-07 18:40 44.71635 -3.93299 35922 ft 452 kts
2026-05-07 18:40 44.77891 -3.92415 35928 ft 452 kts
2026-05-07 18:41 44.84149 -3.91528 35927 ft 452 kts
2026-05-07 18:41 44.90367 -3.90644 35929 ft 452 kts
2026-05-07 18:42 44.96634 -3.89751 35937 ft 452 kts
2026-05-07 18:42 45.02936 -3.88851 35938 ft 452 kts
2026-05-07 18:43 45.08860 -3.88003 35941 ft 452 kts
2026-05-07 18:43 45.15158 -3.87100 35941 ft 452 kts
2026-05-07 18:44 45.21180 -3.86234 35939 ft 452 kts
2026-05-07 18:44 45.27438 -3.85330 35942 ft 452 kts
2026-05-07 18:45 45.33703 -3.84425 35946 ft 452 kts
2026-05-07 18:45 45.39958 -3.83519 35946 ft 452 kts
2026-05-07 18:46 45.46212 -3.82612 35948 ft 452 kts
2026-05-07 18:46 45.52465 -3.81702 35945 ft 452 kts
2026-05-07 18:47 45.58718 -3.80791 35945 ft 452 kts
2026-05-07 18:47 45.64969 -3.79878 35947 ft 452 kts
2026-05-07 18:48 45.70935 -3.79004 35950 ft 452 kts
2026-05-07 18:48 45.77101 -3.78099 35954 ft 452 kts
2026-05-07 18:49 45.83354 -3.77180 35956 ft 452 kts
2026-05-07 18:49 45.89618 -3.76257 35963 ft 452 kts
2026-05-07 18:50 45.95881 -3.75331 35958 ft 453 kts
2026-05-07 18:50 46.02150 -3.74403 35964 ft 453 kts
2026-05-07 18:51 46.08423 -3.73472 35971 ft 453 kts
2026-05-07 18:51 46.14701 -3.72538 35969 ft 453 kts
2026-05-07 18:52 46.20979 -3.71602 35968 ft 454 kts
2026-05-07 18:52 46.27258 -3.70664 35975 ft 454 kts
2026-05-07 18:53 46.33544 -3.69865 35973 ft 453 kts 360°
2026-05-07 18:53 46.39836 -3.69577 35978 ft 453 kts 359°
2026-05-07 18:54 46.46134 -3.69271 35973 ft 453 kts 359°
2026-05-07 18:54 46.52432 -3.68970 35978 ft 453 kts 359°
2026-05-07 18:55 46.58728 -3.68672 35973 ft 453 kts 359°
2026-05-07 18:55 46.65027 -3.68375 35979 ft 453 kts 359°
2026-05-07 18:56 46.71368 -3.68074 35981 ft 453 kts 359°
2026-05-07 18:56 46.77622 -3.67777 35978 ft 453 kts 359°
2026-05-07 18:57 46.83922 -3.67477 35978 ft 453 kts 359°
2026-05-07 18:57 46.90269 -3.67174 35976 ft 453 kts 359°
2026-05-07 18:58 46.96530 -3.66874 35977 ft 453 kts 359°
2026-05-07 18:58 47.01812 -3.66621 35976 ft 454 kts 359°
2026-05-07 18:59 47.09146 -3.66268 35976 ft 454 kts 359°
2026-05-07 18:59 47.15460 -3.65964 35978 ft 454 kts 359°
2026-05-07 19:00 47.20757 -3.65708 35973 ft 454 kts 359°
2026-05-07 19:00 47.27078 -3.65402 35979 ft 455 kts 359°
2026-05-07 19:01 47.33319 -3.65099 35975 ft 455 kts 359°
2026-05-07 19:01 47.39182 -3.64813 35974 ft 456 kts 359°
2026-05-07 19:02 47.45523 -3.64502 35972 ft 456 kts 359°
2026-05-07 19:02 47.51878 -3.64191 35970 ft 457 kts 359°
2026-05-07 19:03 47.57160 -3.63933 35981 ft 457 kts 359°
2026-05-07 19:03 47.63481 -3.63622 35982 ft 458 kts 359°
2026-05-07 19:04 47.69853 -3.63309 35986 ft 458 kts 359°
2026-05-07 19:04 47.76226 -3.62995 35985 ft 459 kts 359°
2026-05-07 19:05 47.82610 -3.62680 35988 ft 459 kts 359°
2026-05-07 19:05 47.88997 -3.62364 35990 ft 460 kts 359°
2026-05-07 19:06 47.95390 -3.62046 35991 ft 460 kts 359°
2026-05-07 19:06 48.04911 -3.62207 35984 ft 458 kts 353°
2026-05-07 19:07 48.11229 -3.63305 35984 ft 457 kts 349°
2026-05-07 19:07 48.17534 -3.64569 35990 ft 457 kts 349°
2026-05-07 19:08 48.23836 -3.65831 35991 ft 457 kts 349°
2026-05-07 19:08 48.30143 -3.67096 35990 ft 457 kts 349°
2026-05-07 19:09 48.36453 -3.68367 35992 ft 457 kts 349°
2026-05-07 19:09 48.42759 -3.69640 35994 ft 458 kts 349°
2026-05-07 19:10 48.49070 -3.70916 35994 ft 458 kts 349°
2026-05-07 19:10 48.55383 -3.72196 35990 ft 458 kts 349°
2026-05-07 19:11 48.61701 -3.73480 35993 ft 458 kts 349°
2026-05-07 19:11 48.68019 -3.74767 35991 ft 458 kts 349°
2026-05-07 19:12 48.74339 -3.76058 35991 ft 458 kts 349°
2026-05-07 19:12 48.80666 -3.77354 35987 ft 459 kts 349°
2026-05-07 19:13 48.86992 -3.78653 35987 ft 459 kts 349°
2026-05-07 19:13 48.93319 -3.79937 35986 ft 459 kts 351°
2026-05-07 19:14 48.99714 -3.80562 35987 ft 461 kts 357°
2026-05-07 19:14 49.06144 -3.80354 35982 ft 463 kts
2026-05-07 19:15 49.12543 -3.79960 35987 ft 463 kts
2026-05-07 19:15 49.19026 -3.79564 35985 ft 463 kts
2026-05-07 19:16 49.25469 -3.79171 35987 ft 463 kts
2026-05-07 19:16 49.31912 -3.78776 35986 ft 464 kts
2026-05-07 19:17 49.38361 -3.78381 35988 ft 464 kts
2026-05-07 19:17 49.44769 -3.77986 35988 ft 464 kts
2026-05-07 19:18 49.51263 -3.77586 35988 ft 464 kts
2026-05-07 19:18 49.57665 -3.77191 35995 ft 464 kts
2026-05-07 19:19 49.64084 -3.76793 35999 ft 464 kts
2026-05-07 19:19 49.70531 -3.76389 35995 ft 464 kts
2026-05-07 19:20 49.76974 -3.75658 35999 ft 464 kts
2026-05-07 19:20 49.83413 -3.74836 35995 ft 464 kts
2026-05-07 19:21 49.89851 -3.74057 35999 ft 464 kts
2026-05-07 19:21 49.96284 -3.73293 35998 ft 464 kts
2026-05-07 19:22 50.02723 -3.72528 35993 ft 464 kts
2026-05-07 19:22 50.09162 -3.71761 35997 ft 464 kts
2026-05-07 19:23 50.15644 -3.70986 36004 ft 464 kts
2026-05-07 19:23 50.22125 -3.70209 36006 ft 464 kts
2026-05-07 19:24 50.28572 -3.69434 36006 ft 464 kts
2026-05-07 19:24 50.35016 -3.68657 36013 ft 465 kts
2026-05-07 19:25 50.41443 -3.67880 36014 ft 465 kts
2026-05-07 19:25 50.47886 -3.66764 36021 ft 466 kts
2026-05-07 19:26 50.54320 -3.65457 36023 ft 466 kts
2026-05-07 19:26 50.60745 -3.64206 36023 ft 466 kts
2026-05-07 19:27 50.67183 -3.62974 36024 ft 466 kts
2026-05-07 19:27 50.73636 -3.61739 36029 ft 466 kts
2026-05-07 19:28 50.80070 -3.60504 36026 ft 466 kts
2026-05-07 19:28 50.86514 -3.59262 36031 ft 466 kts
2026-05-07 19:29 50.92956 -3.58018 35946 ft 464 kts
2026-05-07 19:29 50.96153 -3.57399 35462 ft 464 kts
2026-05-07 19:29 50.99367 -3.56778 34673 ft 468 kts
2026-05-07 19:30 51.02616 -3.56150 33685 ft 473 kts
2026-05-07 19:30 51.05904 -3.55511 32540 ft 479 kts
2026-05-07 19:30 51.09224 -3.54864 31413 ft 483 kts
2026-05-07 19:30 51.12569 -3.54211 30356 ft 485 kts
2026-05-07 19:31 51.15916 -3.53556 29334 ft 483 kts
2026-05-07 19:31 51.19226 -3.52907 28703 ft 475 kts
2026-05-07 19:31 51.22423 -3.51815 28030 ft 468 kts 18°
2026-05-07 19:31 51.25384 -3.49759 27373 ft 461 kts 30°
2026-05-07 19:32 51.27995 -3.46900 27020 ft 448 kts 39°
2026-05-07 19:32 51.30411 -3.43856 26765 ft 438 kts 38°
2026-05-07 19:32 51.32814 -3.40853 26455 ft 441 kts 38°
2026-05-07 19:32 51.35236 -3.37827 25943 ft 442 kts 38°
2026-05-07 19:33 51.37649 -3.34807 25450 ft 438 kts 38°
2026-05-07 19:33 51.40031 -3.31819 24953 ft 432 kts 38°
2026-05-07 19:33 51.42377 -3.28871 24459 ft 425 kts 38°
2026-05-07 19:33 51.44702 -3.25943 23662 ft 427 kts 38°
2026-05-07 19:34 51.47028 -3.23011 22970 ft 423 kts 38°
2026-05-07 19:34 51.49314 -3.20126 22590 ft 412 kts 38°
2026-05-07 19:34 51.51564 -3.17282 22322 ft 413 kts 38°
2026-05-07 19:34 51.53825 -3.14421 22008 ft 415 kts 38°
2026-05-07 19:35 51.56095 -3.11546 21550 ft 414 kts 38°
2026-05-07 19:35 51.58336 -3.08701 21074 ft 408 kts 38°
2026-05-07 19:35 51.60548 -3.05892 20603 ft 401 kts 38°
2026-05-07 19:35 51.62711 -3.03139 20143 ft 394 kts 38°
2026-05-07 19:36 51.64838 -3.00430 19691 ft 387 kts 38°
2026-05-07 19:36 51.66934 -2.97756 19241 ft 381 kts 38°
2026-05-07 19:36 51.68994 -2.95126 18787 ft 375 kts 38°
2026-05-07 19:36 51.71024 -2.92531 18355 ft 370 kts 38°
2026-05-07 19:37 51.73026 -2.89968 17890 ft 364 kts 38°
2026-05-07 19:37 51.74991 -2.87449 17467 ft 358 kts 38°
2026-05-07 19:37 51.76936 -2.84955 17034 ft 358 kts 38°
2026-05-07 19:37 51.78887 -2.82449 16618 ft 357 kts 38°
2026-05-07 19:38 51.80843 -2.79933 16194 ft 352 kts 38°
2026-05-07 19:38 51.82757 -2.77469 15767 ft 352 kts 38°
2026-05-07 19:38 51.84683 -2.74986 15108 ft 356 kts 38°
2026-05-07 19:38 51.86646 -2.72454 14697 ft 368 kts 38°
2026-05-07 19:39 51.88662 -2.69850 14445 ft 371 kts 38°
2026-05-07 19:39 51.90672 -2.67250 14039 ft 370 kts 38°
2026-05-07 19:39 51.92668 -2.64664 13574 ft 365 kts 38°
2026-05-07 19:39 51.93974 -2.62972 13286 ft 360 kts 38°
2026-05-07 19:40 51.96523 -2.59553 13024 ft 358 kts 43°
2026-05-07 19:40 51.97720 -2.57700 13029 ft 361 kts 44°
2026-05-07 19:40 51.99537 -2.54899 13030 ft 359 kts 43°
2026-05-07 19:40 52.01891 -2.51284 13025 ft 340 kts 43°
2026-05-07 19:41 52.03027 -2.49538 13022 ft 328 kts 43°
2026-05-07 19:41 52.04636 -2.47061 13023 ft 310 kts 44°
2026-05-07 19:41 52.06175 -2.44688 13005 ft 298 kts 44°
2026-05-07 19:41 52.07661 -2.42396 12779 ft 297 kts 44°
2026-05-07 19:42 52.09159 -2.40080 12394 ft 297 kts 44°
2026-05-07 19:42 52.10653 -2.37770 11992 ft 295 kts 44°
2026-05-07 19:42 52.12134 -2.35478 11611 ft 292 kts 44°
2026-05-07 19:42 52.13598 -2.33208 11210 ft 290 kts 44°
2026-05-07 19:43 52.15055 -2.30948 10820 ft 288 kts 44°
2026-05-07 19:43 52.16502 -2.28702 10431 ft 286 kts 44°
2026-05-07 19:43 52.17935 -2.26474 10056 ft 284 kts 44°
2026-05-07 19:43 52.19360 -2.24257 9645 ft 282 kts 44°
2026-05-07 19:44 52.20776 -2.22053 9230 ft 281 kts 44°
2026-05-07 19:44 52.22184 -2.19857 8793 ft 279 kts 44°
2026-05-07 19:44 52.23585 -2.17673 8390 ft 278 kts 44°
2026-05-07 19:44 52.24974 -2.15504 8006 ft 275 kts 44°
2026-05-07 19:45 52.26356 -2.13345 7609 ft 274 kts 44°
2026-05-07 19:45 52.27728 -2.11199 7229 ft 272 kts 44°
2026-05-07 19:45 52.29076 -2.09088 7059 ft 264 kts 44°
2026-05-07 19:45 52.30366 -2.07068 7038 ft 249 kts 44°
2026-05-07 19:46 52.31619 -2.05103 7043 ft 252 kts 44°
2026-05-07 19:46 52.32879 -2.03123 7042 ft 251 kts 44°
2026-05-07 19:46 52.34112 -2.01188 7040 ft 239 kts 44°
2026-05-07 19:46 52.35309 -1.99304 7064 ft 239 kts 44°
2026-05-07 19:47 52.36472 -1.97473 7035 ft 226 kts 44°
2026-05-07 19:47 52.37614 -1.95674 7047 ft 229 kts 44°
2026-05-07 19:47 52.38763 -1.93871 7043 ft 228 kts 41°
2026-05-07 19:47 52.40141 -1.92683 6965 ft 224 kts 11°
2026-05-07 19:48 52.41699 -1.92400 6873 ft 227 kts
2026-05-07 19:48 52.43259 -1.92238 6673 ft 220 kts
2026-05-07 19:48 52.44749 -1.92186 6443 ft 209 kts 359°
2026-05-07 19:48 52.46174 -1.92154 6198 ft 202 kts 359°
2026-05-07 19:49 52.47582 -1.92125 5965 ft 202 kts 359°
2026-05-07 19:49 52.48984 -1.92103 5731 ft 202 kts 359°
2026-05-07 19:49 52.50389 -1.92086 5498 ft 201 kts 359°
2026-05-07 19:49 52.51785 -1.92075 5273 ft 201 kts 359°
2026-05-07 19:50 52.53176 -1.92063 5036 ft 197 kts
2026-05-07 19:50 52.54431 -1.91377 4799 ft 188 kts 41°
2026-05-07 19:50 52.55197 -1.89665 4587 ft 189 kts 63°
2026-05-07 19:50 52.55740 -1.87722 4216 ft 187 kts 83°
2026-05-07 19:51 52.55538 -1.85683 3840 ft 178 kts 126°
2026-05-07 19:51 52.54643 -1.84427 3484 ft 171 kts 154°
2026-05-07 19:51 52.53611 -1.83553 3123 ft 163 kts 155°
2026-05-07 19:51 52.52622 -1.82717 2745 ft 153 kts 154°
2026-05-07 19:52 52.51726 -1.81857 2302 ft 151 kts 150°
2026-05-07 19:52 52.50858 -1.80895 1854 ft 150 kts 148°
2026-05-07 19:52 52.50011 -1.79934 1453 ft 147 kts 148°
2026-05-07 19:52 52.49165 -1.78990 1126 ft 140 kts 148°
2026-05-07 19:53 52.48366 -1.78118 861 ft 142 kts 148°
2026-05-07 19:53 52.47555 -1.77213 644 ft 141 kts 147°
2026-05-07 19:53 52.46714 -1.76277 413 ft 147 kts 147°
2026-05-07 19:53 52.45887 -1.75361 320 ft 131 kts 145°
2026-05-07 19:54 52.45393 -1.74809 321 ft 39 kts 146°
2026-05-07 19:54 52.45181 -1.74570 325 ft 36 kts 146°
2026-05-07 19:54 52.44980 -1.74355 327 ft 34 kts 147°
2026-05-07 19:54 52.44809 -1.74156 331 ft 30 kts 145°
2026-05-07 19:55 52.44680 -1.74015 332 ft 8 kts 143°
2026-05-07 19:55 52.44662 -1.73925 333 ft 10 kts 77°
2026-05-07 19:55 52.44706 -1.73813 332 ft 13 kts 55°
2026-05-07 19:55 52.44769 -1.73708 334 ft 13 kts 23°
2026-05-07 19:56 52.44840 -1.73680 336 ft 0 kts 14°
2026-05-07 19:57 52.44855 -1.73660 333 ft 6 kts 45°
2026-05-07 19:57 52.44900 -1.73553 332 ft 15 kts 57°
2026-05-07 19:57 52.44939 -1.73423 332 ft 10 kts 68°
2026-05-07 19:57 52.44974 -1.73338 332 ft 7 kts 47°
2026-05-07 19:58 52.45002 -1.73350 331 ft 3 kts 340°
2026-05-07 19:58 52.45010 -1.73361 332 ft 0 kts 322°
2026-05-07 19:58 52.45012 -1.73361 332 ft 0 kts 329°